Salt Lake City, UT

10:51 AM MST on February 22, 2017 (GMT -0700)
Salt Lake City International

Weather History for KSLC - January, 2014

Change the Weather History Date:

Friday, January 24, 2014

  Actual Average Record
Temperature  
Mean Temperature 27 °F 30 °F  
Max Temperature 37 °F 38 °F 59 °F (1970)
Min Temperature 16 °F 22 °F -9 °F (1929)
Degree Days  
Heating Degree Days 38 35  
Month to date heating degree days 840 859  
Since 1 July heating degree days 3131 3153  
Cooling Degree Days 0 0  
Month to date cooling degree days 0 0  
Year to date cooling degree days 0 0  
Moisture  
Dew Point 20 °F    
Average Humidity 70    
Maximum Humidity 91    
Minimum Humidity 48    
Precipitation  
Precipitation 0.00 in 0.03 in 0.54 in (1934)
Month to date precipitation 0.57 0.98  
Year to date precipitation 0.57 0.98  
Snow  
Snow 0.00 in 0.40 in 6.40 in (1996)
Month to date snowfall 8.3 10.0  
Since 1 July snowfall 31.0 32.2  
Snow Depth T in    
Sea Level Pressure  
Sea Level Pressure 30.61 in    
Wind  
Wind Speed 3 mph (NW)    
Max Wind Speed 9 mph    
Max Gust Speed 11 mph    
Visibility 10 miles    
Events      
T = Trace of Precipitation, MM = Missing Value Source: NWS Daily Summary

Daily Weather History Graph

Daily Weather History Graph

Search for Another Location

Airport or City:

Trip Planner

Search our weather history database for the weather conditions in past years. The results will help you decide how hot, cold, wet, or windy it might be!

Date:

Astronomy

Jan. 24, 2014 Rise Set
Actual Time 7:44 AM MST 5:35 PM MST
Civil Twilight 7:15 AM MST 6:05 PM MST
Nautical Twilight 6:42 AM MST 6:38 PM MST
Astronomical Twilight 6:09 AM MST 7:11 PM MST
Moon 1:15 AM MST (1/24) 11:57 AM MST (1/24)
Length of Visible Light 10h 50m
Length of Day
9h 50m
Last Quarter, 44% of the Moon is Illuminated
Jan 24
Last Quarter
Jan 30
New
Feb 6
First Quarter
Feb 14
Full
Feb 22
Last Quarter

Hourly Weather History & Observations

Time (MST) Temp. Windchill Dew Point Humidity Pressure Visibility Wind Dir Wind Speed Gust Speed Precip Events Conditions
12:53 AM 26.1 °F - 21.9 °F 84% 30.58 in 9.0 mi Calm Calm - N/A   Clear
1:53 AM 24.1 °F - 21.0 °F 88% 30.60 in 9.0 mi Calm Calm - N/A   Clear
2:53 AM 21.9 °F - 17.1 °F 82% 30.62 in 9.0 mi Calm Calm - N/A   Clear
3:53 AM 23.0 °F 15.8 °F 19.0 °F 85% 30.61 in 10.0 mi SE 5.8 mph - N/A   Clear
4:53 AM 23.0 °F 17.0 °F 19.0 °F 85% 30.62 in 10.0 mi ESE 4.6 mph - N/A   Clear
5:53 AM 25.0 °F 17.1 °F 17.1 °F 72% 30.62 in 10.0 mi SE 6.9 mph - N/A   Clear
6:53 AM 17.1 °F - 14.0 °F 88% 30.66 in 10.0 mi Calm Calm - N/A   Clear
7:53 AM 18.0 °F 7.7 °F 14.0 °F 84% 30.67 in 10.0 mi North 8.1 mph - N/A   Partly Cloudy
8:53 AM 21.9 °F - 19.0 °F 89% 30.67 in 10.0 mi Calm Calm - N/A   Clear
9:53 AM 28.9 °F - 19.9 °F 69% 30.65 in 10.0 mi Calm Calm - N/A   Clear
10:53 AM 35.1 °F - 17.1 °F 48% 30.64 in 10.0 mi Calm Calm - N/A   Partly Cloudy
11:28 AM 37.0 °F - 18.0 °F 46% 30.59 in 10.0 mi Calm Calm - N/A   Partly Cloudy
11:53 AM 36.0 °F 32.1 °F 19.9 °F 52% 30.63 in 9.0 mi NW 4.6 mph - N/A   Partly Cloudy
12:53 PM 35.1 °F 30.1 °F 19.9 °F 54% 30.62 in 10.0 mi NW 5.8 mph - N/A   Partly Cloudy
1:53 PM 37.0 °F 32.4 °F 19.9 °F 50% 30.59 in 10.0 mi NW 5.8 mph - N/A   Partly Cloudy
2:53 PM 37.0 °F 31.6 °F 19.9 °F 50% 30.58 in 10.0 mi WNW 6.9 mph - N/A   Scattered Clouds
3:53 PM 36.0 °F 30.3 °F 18.0 °F 48% 30.58 in 10.0 mi NW 6.9 mph - N/A   Scattered Clouds
4:53 PM 34.0 °F 28.8 °F 21.0 °F 59% 30.58 in 10.0 mi NW 5.8 mph - N/A   Partly Cloudy
5:53 PM 30.9 °F 25.2 °F 24.1 °F 76% 30.58 in 10.0 mi NW 5.8 mph - N/A   Partly Cloudy
6:53 PM 28.9 °F - 24.1 °F 82% 30.63 in 10.0 mi Calm Calm - N/A   Partly Cloudy
7:53 PM 30.0 °F - 24.1 °F 79% 30.61 in 9.0 mi Calm Calm - N/A   Clear
8:53 PM 28.0 °F - 24.1 °F 85% 30.60 in 9.0 mi Calm Calm - N/A   Partly Cloudy
9:53 PM 25.0 °F - 21.9 °F 88% 30.58 in 10.0 mi Calm Calm - N/A   Clear
10:53 PM 23.0 °F 14.7 °F 19.0 °F 85% 30.57 in 10.0 mi NNW 6.9 mph - N/A   Clear
11:53 PM 21.9 °F - 18.0 °F 85% 30.57 in 10.0 mi Calm Calm - N/A   Clear